Regional Weather Roundup
Issued by NWS

Home | Current Version | Previous Version | Text Only | Print | Product List | Glossary On
Versions: 1 2 3 4 5 6 7 8 9 10 11 12 13 14 15 16 17 18 19 20 21 22 23 24 25 26 27 28 29 30 31 32 33 34 35 36 37 38 39 40 41 42 43 44 45 46 47 48 49 50
123
ASUS43 KLOT 280912
RWRIL

ILLINOIS REGIONAL WEATHER ROUNDUP
NATIONAL WEATHER SERVICE CHICAGO/ROMEOVILLE IL
400 AM CDT WED SEP 28 2016

NOTE: "FAIR" INDICATES FEW OR NO CLOUDS BELOW 12,000 FEET WITH NO
SIGNIFICANT WEATHER AND/OR OBSTRUCTIONS TO VISIBILITY.

* THESE STATIONS ARE NOT UNDER NWS QUALITY CONTROL. THEY ALSO MAY NOT
  REPORT WEATHER SUCH AS PRECIPITATION OR FOG.

ILZ001-002-007-009-015-016-024-281000-
NORTHWEST ILLINOIS

CITY           SKY/WX    TMP DP  RH WIND       PRES   REMARKS
MOLINE         CLOUDY    55  44  66 N10       29.82R
STERLING*      CLOUDY    51  46  83 N7        29.82R
SAVANNA*       CLOUDY    50  46  84 N8        29.83S
$$

ILZ003-004-008-010-011-017-018-281000-
NORTH CENTRAL ILLINOIS

CITY           SKY/WX    TMP DP  RH WIND       PRES   REMARKS
ROCKFORD       CLOUDY    50  46  86 N9        29.82S
FREEPORT*      PTCLDY    46  45  94 NW7       29.83S
ROCHELLE*      CLOUDY    49  46  86 N9        29.81R
DE KALB*       CLOUDY    50  46  85 N9        29.80R
$$

ILZ005-006-012>014-019>023-281000-
NORTHEAST ILLINOIS

CITY           SKY/WX    TMP DP  RH WIND       PRES   REMARKS
CHICAGO-OHARE  LGT RAIN  53  45  74 NW3       29.79R
CHICAGO-MIDWAY DRIZZLE   55  45  68 NW6       29.79R
AURORA         CLOUDY    52  46  80 NW5       29.79R
LANSING*       CLOUDY    57  53  84 NW10      29.78R
JOLIET*        CLOUDY    55  47  75 NE6       29.76F
WAUKEGAN       CLOUDY    50  46  86 NW5       29.78S
DUPAGE AIRPORT CLOUDY    52  45  77 N3        29.78R
KANKAKEE*      CLOUDY    55  50  83 CALM      29.76F
WHEELING       CLOUDY    53  46  77 CALM      29.79S
MORRIS*        CLOUDY    54  46  76 NW5       29.77R
ROMEOVILLE*    CLOUDY    53  49  87 E6        29.76F
NORTHERLY ISL    N/A     55  45  68 N7          N/A
$$

LMZ740>746-281000-
SOUTHERN LAKE MICHIGAN

STATION/POSITION SKY/WX   TEMP    WIND        PRES    VSBY  WAVE
                          AIR SEA DIR/SP/G                  HT/PER
                          (F)     (DEG/KT/KT) (MB)    (MI)  (FT/S)
SOUTHERN BUOY              56 69  280/  8/ 10 1008.2R         2/ 4
WILMETTE HARBOR            55 60  340/  6/  8   N/A           1/ 2
HARRISON CRIB              56     350/ 10/ 11   N/A
BURNHAM HARBOR             54     350/  7/ 12   N/A
CALUMET HARBOR             56     300/  6/ 11 1008.2R
BURNS HARBOR               58      60/ 12/ 14 1008.5R
MICHIGAN CITY              55      40/ 12/ 13   N/A
MICHIGAN CITY 6N           58 67   70/ 10/ 14   N/A           3/ 5
ST. JOSEPH                 58 66   60/ 12/ 16 1008.3          2/ 5
$$

ILZ025>027-034>036-040-047-049-050-058-095>099-281000-
WEST-CENTRAL ILLINOIS

CITY           SKY/WX    TMP DP  RH WIND       PRES   REMARKS
QUINCY         CLOUDY    58  50  75 NW8       29.79S
GALESBURG*     CLOUDY    52  47  81 N5        29.79S
MACOMB*        CLOUDY    56  44  64 N13G20    29.82R
JACKSONVILLE*  CLOUDY    59  52  76 SW5       29.77S
PITTSFIELD*    CLOUDY    61  52  72 W6        29.79S
$$

ILZ028>032-037-038-041>044-048-051>054-059>061-281000-
CENTRAL ILLINOIS

CITY           SKY/WX    TMP DP  RH WIND       PRES   REMARKS
PONTIAC        LGT RAIN  55  51  89 NE9       29.75S
BLOOMINGTON    CLOUDY    57  44  62 N7        29.75S
DECATUR        CLOUDY    63  51  65 W8        29.75S
PEORIA         CLOUDY    55  47  74 N8        29.78R
LACON*         CLOUDY    53  46  78 CALM      29.78S
LINCOLN*       CLOUDY    60  51  71 NW5       29.75R
SPRINGFIELD    CLOUDY    60  52  74 W6        29.75F
TAYLORVILLE    CLOUDY    61  52  72 W7        29.76S
$$

ILZ033-039-045-046-055>057-062-063-281000-
EAST-CENTRAL ILLINOIS

CITY           SKY/WX    TMP DP  RH WIND       PRES   REMARKS
CHAMPAIGN      CLOUDY    59  51  75 W5        29.74S
RANTOUL*       CLOUDY    58  49  70 NW3       29.75R
MATTOON        CLOUDY    60  52  74 SW9       29.74F
PARIS*         CLOUDY    60  54  79 CALM      29.76S
$$

ILZ079-100>102-281000-
SOUTHWEST ILLINOIS

CITY           SKY/WX    TMP DP  RH WIND       PRES   REMARKS
BELLEVILLE     CLEAR     60  54  81 SW6       29.78F
CAHOKIA*       CLEAR     64  52  64 SW6       29.79F
SPARTA*        PTCLDY    62  52  70 SW7       29.82F
$$

ILZ064>066-069>071-074>076-080>082-084>086-088>090-092>094-281000-
SOUTH-CENTRAL ILLINOIS

CITY           SKY/WX    TMP DP  RH WIND       PRES   REMARKS
CARBONDALE     PTCLDY    56  53  90 S5        29.83F
CAIRO*         CLEAR     60  51  71 SW7       29.87S
EFFINGHAM*     CLOUDY    60  56  87 SW5       29.78F
MARION         CLEAR     59  54  82 S6        29.84F
MT. VERNON     PTCLDY    57  48  72 S5        29.81F
CENTRALIA*     CLEAR     58  55  88 SW7       29.79F
SALEM*         CLEAR     59  53  80 CALM      29.79F
METROPOLIS*    CLEAR     60  51  70 CALM      29.88S
$$

ILZ067-068-072-073-078-083-087-091-281000-
SOUTHEAST ILLINOIS

CITY           SKY/WX    TMP DP  RH WIND       PRES   REMARKS
LAWRENCEVILLE  MOCLDY    58  52  80 S6        29.79F
FLORA*         PTCLDY    58  54  85 SW6       29.79F
FAIRFIELD*     CLEAR     58  53  83 CALM      29.79F
HARRISBURG*    CLEAR     59  54  83 SW3       29.84S
ROBINSON*      CLOUDY    59  53  79 SW6       29.78F
CARMI*         CLEAR     60  53  78 SW10      29.81F
$$

ABBREVIATIONS USED IN REMARKS
   TC - TEMPERATURE IN CELSIUS
  WCI - WIND CHILL INDEX
   HX - HEAT INDEX
  VSB - VISIBILITY
$$





USA.gov is the U.S. government's official web portal to all federal, state and local government web resources and services.